Weather History for Scappoose, OR

Change the Weather History Date:

Friday, June 6, 2014

  Actual Average Record
Temperature  
Mean Temperature 62 °F -  
Max Temperature 79 °F - 96 °F (2003)
Min Temperature 44 °F - 37 °F (2012)
Degree Days  
Heating Degree Days 3    
Month to date heating degree days 29  
Since 1 June heating degree days 29  
Since 1 July heating degree days 4807  
Cooling Degree Days 0    
Month to date cooling degree days 0  
Year to date cooling degree days 10  
Since 1 June cooling degree days 0  
Growing Degree Days 12 (Base 50)    
Moisture  
Dew Point 44 °F    
Average Humidity 60    
Maximum Humidity 92    
Minimum Humidity 28    
Precipitation  
Precipitation 0.00 in - 0.39 in (2004)
Month to date precipitation 0.00  
Year to date precipitation 23.13  
Sea Level Pressure  
Sea Level Pressure 30.08 in    
Wind  
Wind Speed 8 mph (NNW)    
Max Wind Speed 17 mph    
Max Gust Speed 24 mph    
Visibility 10 miles    
Events      
T = Trace of Precipitation, MM = Missing Value Source: NWS Daily Summary

Daily Weather History Graph

Daily Weather History Graph

Search for Another Location

Airport:

Trip Planner

Search our weather history database for the weather conditions in past years. The results will help you decide how hot, cold, wet, or windy it might be!

Date:

Astronomy

Jun. 06, 2014 Rise Set
Actual Time 5:22 AM PDT 8:58 PM PDT
Civil Twilight 4:45 AM PDT 9:35 PM PDT
Nautical Twilight 3:55 AM PDT 10:25 PM PDT
Astronomical Twilight 2:48 AM PDT 11:32 PM PDT
Moon 2:03 PM PDT (6/6) 1:37 AM PDT (6/6)
Length of Visible Light 16h 50m
Length of Day
15h 35m
First Quarter, 59% of the Moon is Illuminated
Jun 6
First Quarter
Jun 12
Full
Jun 19
Last Quarter
Jun 27
New
Jul 5
First Quarter

Hourly Weather History & Observations

Time (PDT) Temp. Dew Point Humidity Pressure Visibility Wind Dir Wind Speed Gust Speed Precip Events Conditions
12:53 AM 52.0 °F 42.1 °F 69% 30.09 in 10.0 mi NNW 6.9 mph - N/A   Clear
1:53 AM 52.0 °F 42.1 °F 69% 30.08 in 10.0 mi North 5.8 mph - N/A   Clear
2:53 AM 51.1 °F 42.1 °F 71% 30.09 in 10.0 mi North 8.1 mph - N/A   Clear
3:53 AM 51.1 °F 43.0 °F 74% 30.10 in 10.0 mi North - - N/A   Clear
4:53 AM 45.0 °F 41.0 °F 86% 30.10 in 10.0 mi Calm Calm - N/A   Clear
5:53 AM 45.0 °F 42.1 °F 90% 30.11 in 10.0 mi Calm Calm - N/A   Clear
6:53 AM 50.0 °F 45.0 °F 83% 30.12 in 10.0 mi Calm Calm - N/A   Clear
8:53 AM 59.0 °F 48.0 °F 67% 30.11 in 10.0 mi Variable 4.6 mph - N/A   Clear
9:53 AM 64.0 °F 51.1 °F 63% 30.10 in 10.0 mi Variable 3.5 mph - N/A   Clear
10:53 AM 68.0 °F 46.0 °F 45% 30.10 in 10.0 mi North 5.8 mph - N/A   Clear
11:53 AM 72.0 °F 45.0 °F 38% 30.09 in 10.0 mi NNW 10.4 mph - N/A   Clear
12:53 PM 73.9 °F 43.0 °F 33% 30.08 in 10.0 mi NNW 11.5 mph - N/A   Clear
1:53 PM 75.9 °F 43.0 °F 31% 30.07 in 10.0 mi North 13.8 mph - N/A   Clear
2:53 PM 78.1 °F 45.0 °F 31% 30.06 in 10.0 mi North 11.5 mph - N/A   Clear
3:53 PM 78.1 °F 46.0 °F 32% 30.05 in 10.0 mi North 10.4 mph - N/A   Clear
4:53 PM 78.1 °F 43.0 °F 29% 30.04 in 10.0 mi North 11.5 mph - N/A   Clear
5:53 PM 77.0 °F 46.0 °F 33% 30.04 in 10.0 mi NNW 15.0 mph 20.7 mph N/A   Clear
6:53 PM 75.9 °F 45.0 °F 33% 30.05 in 10.0 mi NNW 10.4 mph - N/A   Clear
7:53 PM 71.1 °F 41.0 °F 34% 30.06 in 10.0 mi NW 8.1 mph - N/A   Clear
8:53 PM 66.9 °F 37.9 °F 34% 30.06 in 10.0 mi NW 12.7 mph 20.7 mph N/A   Clear
9:53 PM 63.0 °F 43.0 °F 48% 30.08 in 10.0 mi Variable 6.9 mph 16.1 mph N/A   Clear
10:53 PM 60.1 °F 46.0 °F 60% 30.10 in 10.0 mi North 8.1 mph - N/A   Clear
11:53 PM 55.9 °F 46.9 °F 72% 30.11 in 10.0 mi West 4.6 mph - N/A   Clear